Regional Weather Roundup
Issued by NWS

Home | Current Version | Previous Version | Graphics & Text | Print | Product List | Glossary On
Versions: 1 2 3 4 5 6 7 8 9 10 11 12 13 14 15 16 17 18 19 20 21 22 23 24 25 26 27 28 29 30 31 32 33 34 35 36 37 38 39 40 41 42 43 44 45 46 47 48 49 50
000
ASUS43 KDMX 250806
RWRIA

WEATHER ROUNDUP FOR IOWA
NATIONAL WEATHER SERVICE DES MOINES IA
300 AM CDT WED APR 25 2018

NOTE: "FAIR" INDICATES FEW OR NO CLOUDS BELOW 12,000 FEET WITH NO
SIGNIFICANT WEATHER AND/OR OBSTRUCTIONS TO VISIBILITY.

* - THESE STATIONS ARE NOT NWS STATIONS...THUS NOT UNDER NWS
QUALITY CONTROL.  THEY ALSO DO NOT REPORT WEATHER SUCH
AS PRECIPITATION OR FOG.

IAZ001>003-012>014-020>022-031>034-043>046-250900-
   NORTHWEST IOWA

CITY           SKY/WX    TMP DP  RH WIND       PRES   REMARKS
CARROLL *      CLOUDY    46  43  87 N10       30.20F
CHEROKEE *     CLOUDY    41  36  81 N6        30.25F
DENISON *      CLOUDY    45  43  93 N8        30.22F
ORANGE CITY *  CLOUDY    39  36  87 N10       30.26S WCI  32
SHELDON *      CLOUDY    36  34  93 N9        30.24F WCI  29
SIOUX CITY     LGT RAIN  44  36  73 N14       30.26S
SPENCER        CLOUDY    39  32  76 N13       30.23F WCI  31
STORM LAKE *   CLOUDY    41  37  87 N12       30.23S
$$

IAZ055>058-069>071-079>083-090>094-250900-
   SOUTHWEST IOWA

CITY           SKY/WX    TMP DP  RH WIND       PRES   REMARKS
ATLANTIC *     CLOUDY    46  45  93 N12G17    30.19F
AUDUBON *      CLOUDY    45  43  93 N7        30.20F
CRESTON *      LGT RAIN  46  45  93 N18       30.15F
HARLAN  *      CLOUDY    46  46 100 N10       30.23F
LAMONI         LGT RAIN  50  43  77 N16       30.13F
RED OAK *      CLOUDY    48  45  87 N10G18    30.18F
SHENANDOAH *   CLOUDY    48  46  93 N13       30.18F
$$

IAZ047>049-059>061-072>074-084-250900-
   CENTRAL IOWA

CITY           SKY/WX    TMP DP  RH WIND       PRES   REMARKS
AMES           MOCLDY    50  39  66 N16       30.17F
ANKENY *       CLOUDY    50  41  71 N12G20    30.17F
BOONE *        CLOUDY    48  43  81 N12       30.17F
CHARITON *     CLOUDY    52  39  62 N16       30.14R
DES MOINES     CLOUDY    52  41  66 N12       30.17F
GRINNELL*      CLOUDY    47  37  70 N12       30.14F
KNOXVILLE *    CLOUDY    52  37  58 N12G18    30.13F
MARSHALLTOWN   MOCLDY    48  39  71 N12       30.15R
NEWTON *       CLOUDY    50  39  66 N15       30.15R
PELLA *        CLOUDY    51  38  60 N13       30.14R
PERRY *        CLOUDY    48  38  69 N9        30.19F
$$

IAZ004>006-015-016-023>025-035-036-250900-
   NORTH CENTRAL IOWA

CITY           SKY/WX    TMP DP  RH WIND       PRES   REMARKS
ALGONA *       MOCLDY    39  36  87 N12       30.21S WCI  32
CLARION *      MOCLDY    43  39  87 N5        30.20S
ESTHERVILLE    CLOUDY    36  32  85 N9        30.23S WCI  29
FORT DODGE *   PTCLDY    44  39  82 N6        30.21S
MASON CITY     CLOUDY    37  32  82 NW9       30.21R WCI  30
FOREST CITY *  FAIR      41  37  87 N9        30.20F
WEBSTER CITY * CLOUDY    45  39  81 N9        30.18R
IOWA FALLS *   FAIR      46  39  76 N7        30.19S
$$

IAZ007>011-017>019-026>030-037>042-050>054-066-250900-
   NORTHEAST IOWA

CITY           SKY/WX    TMP DP  RH WIND       PRES   REMARKS
CEDAR RAPIDS   FAIR      51  36  56 N12       30.09R
CHARLES CITY * FAIR      41  41 100 NW8       30.18R
CLINTON *      FAIR      52  46  80 NE21      30.05R
DECORAH *      FAIR      43  32  65 N10       30.14S
DUBUQUE        CLOUDY    50  33  52 NE13      30.08F
MONTICELLO *   FAIR      50  36  57 N9        30.09R
OELWEIN *      FAIR      45  36  70 N13       30.14R
WATERLOO       FAIR      42  36  79 NW9       30.15S
$$

IAZ064-065-067-068-078-250900-
   EAST CENTRAL IOWA

CITY           SKY/WX    TMP DP  RH WIND       PRES   REMARKS
DAVENPORT      FAIR      52  35  52 N15       30.06R
IOWA CITY      FAIR      55  34  45 N16       30.10R
MT. PLEASANT * MOCLDY    52  36  54 N14       30.06S
MUSCATINE *    FAIR      54  34  47 N12       30.06R
QUAD CITIES    FAIR      57  38  48 N12G22    30.02R
$$

IAZ062-063-075>077-085>089-095>099-250900-
   SOUTHEAST IOWA

CITY           SKY/WX    TMP DP  RH WIND       PRES   REMARKS
BURLINGTON     PTCLDY    56  39  53 N13       30.02S
FAIRFIELD *    CLOUDY    52  36  54 N16       30.08R
FORT MADISON * PTCLDY    54  43  66 NW10      30.04S
KEOKUK *       PTCLDY    55  43  62 N7G16     30.03S
OSKALOOSA *    MOCLDY    51  37  57 N17       30.11S
CENTERVILLE *  MOCLDY    54  39  58 NW17      30.11F
OTTUMWA        MOCLDY    53  37  54 N15       30.11R
WASHINGTON *   MOCLDY    52  37  58 N13       30.09R
$$

ABBREVIATIONS USED IN REMARKS
   TC - TEMPERATURES IN CELSIUS
  WCI - WIND CHILL INDEX
   HX - HEAT INDEX
  VSB - VISIBILITY
$$




USA.gov is the U.S. government's official web portal to all federal, state and local government web resources and services.